Regional Weather Roundup
Issued by NWS Cleveland, OH

Home | Current Version | Previous Version | Text Only | Print | Product List | Glossary Off
Versions: 1 2 3 4 5 6 7 8 9 10 11 12 13 14 15 16 17 18 19 20 21 22 23 24 25 26 27 28 29 30 31 32 33 34 35 36 37 38 39 40 41 42 43 44 45 46 47 48 49 50

371
ASUS41 KCLE 311712
RWRCLE
OHIO REGIONAL WEATHER ROUNDUP
NATIONAL WEATHER SERVICE WILMINGTON, OH
100 PM EDT WED AUG 31 2016

NOTE: "FAIR" INDICATES FEW OR NO CLOUDS BELOW 12,000 FEET WITH NO
SIGNIFICANT WEATHER AND/OR OBSTRUCTIONS TO VISIBILITY.

OHZ001>008-015>018-024>027-034-035-043-044-311800-
   NORTHWEST OHIO

CITY           SKY/WX    TMP DP  RH WIND       PRES   REMARKS
DEFIANCE       CLOUDY    76  69  79 N3        30.01S
FINDLAY        PTSUNNY   80  69  69 W7        29.98F
TOLEDO EXPRESS PTSUNNY   77  71  82 NW7       29.99S
TOLEDO EXEC    FAIR      80  71  74 NW6       29.99F
LIMA           CLOUDY    79  73  82 NW8       30.00F
$$

OHZ009>014-019>023-028>033-038-089-311800-
   NORTHEAST OHIO

CITY           SKY/WX    TMP DP  RH WIND       PRES   REMARKS
CLE-HOPKINS    PTSUNNY   82  66  58 W5        29.99F
CLE-LAKEFRONT  FAIR      79  71  76 W10       29.96F
CUY CO. ARPT   CLOUDY    79  72  78 NW13      29.98F
LORAIN-ELYRIA  FAIR      77  69  76 W6        29.98F
ASHTABULA      PTSUNNY   71  71 100 S6        29.99F
AKRON-CANTON   CLOUDY    80  66  62 NW3       29.99F
WOOSTER        PTSUNNY   78  68  71 SW8       29.99F
MANSFIELD      PTSUNNY   81  68  64 W8        30.00F
YOUNGSTOWN     CLOUDY    75  66  73 E6        30.00F
$$

OHZ042-051>053-060>062-070>072-077>081-311800-
  SOUTHWEST OHIO

CITY           SKY/WX    TMP DP  RH WIND       PRES   REMARKS
CINC-COVINGTON FAIR      84  71  65 W9        30.00F
CINC-LUNKEN    FAIR      84  71  65 W7        29.99F
HAMILTON       PTSUNNY   84  69  60 VRB5      30.00F
DAYTON         PTSUNNY   81  69  67 NW7       30.01F
WRIGHT-PAT AFB PTSUNNY   82  70  65 VRB2      29.98F
DAYTON GENERAL PTSUNNY   81  68  64 W5        30.00F
WILMINGTON     FAIR      83  69  62 MISG      30.00F
$$

OHZ036-037-039>041-045>050-054>059-063>069-073>076-082>088-311800-
  CENTRAL AND SOUTHEAST OHIO

CITY           SKY/WX    TMP DP  RH WIND       PRES   REMARKS
COLUMBUS       PTSUNNY   81  67  62 W10       29.97F
OSU AIRPORT    FAIR      83  69  62 W9G17     29.98F
BOLTON FIELD   SUNNY     81  70  69 W6        30.00F
RICKENBACK AFB FAIR      83  68  60 W6        29.97F
NEWARK         PTSUNNY   85  67  54 NW7       29.98F
MARION         PTSUNNY   83  69  62 N7        29.99F
LANCASTER      FAIR      84  69  60 W6        29.98F
ZANESVILLE     FAIR      88  63  43 VRB6      29.98F
NEW PHILLY     FAIR      86  63  45 VRB5      29.98F
$$




USA.gov is the U.S. government's official web portal to all federal, state and local government web resources and services.